Date String (YYYY-MM-DD hh:mm:ss) UTC,Instrument flags,Ambient pressure (hPa),Sample flow (lpm),Bypass flow (lpm),Sample temperature (°C),Ambient temperature (°C),ASC tube jacket temperature (°C),LED temperature (°C),Box temperature (°C),Sample RH (%),Span deviation,Mass concentration (μg/m³),Mass concentration (μg/m³),Mass concentration (μg/m³)
DateTimeUTC,F1_M11,P_M11,Q1_M11,Q2_M11,T1_M11,T2_M11,T3_M11,T4_M11,T5_M11,U1_M11,ZSPAN_M11,X0_M11,X2_M11,X1_M11
2022-03-24 15:00:00,,0824.6,4.97,0.00,23.9,23.0,00.0,32.7,25.7,11.7,0000.0,0003.84,0001.15,0000.79
2022-03-24 15:01:00,,0824.6,5.02,0.00,23.9,23.0,00.0,32.7,25.7,11.4,0000.0,0003.62,0001.12,0000.78
2022-03-24 15:02:00,,0824.6,5.00,0.00,23.9,23.0,00.0,32.7,25.7,11.3,0000.0,0003.51,0001.10,0000.79
2022-03-24 15:03:00,,0824.6,4.99,0.00,23.9,23.0,00.0,32.8,25.7,11.3,0000.0,0003.38,0001.09,0000.78
2022-03-24 15:04:00,,0824.6,5.01,0.00,23.9,23.0,00.0,32.8,25.7,11.4,0000.0,0003.50,0001.12,0000.80
2022-03-24 15:05:00,,0824.6,4.99,0.00,23.9,23.1,00.0,32.8,25.7,11.7,0000.0,0003.65,0001.13,0000.80
2022-03-24 15:06:00,,0824.6,5.02,0.00,23.9,23.1,00.0,32.8,25.7,11.7,0000.0,0002.93,0001.14,0000.81
2022-03-24 15:07:00,,0824.6,5.00,0.00,23.9,23.1,00.0,32.8,25.8,12.2,0000.0,0002.26,0001.16,0000.81
2022-03-24 15:08:00,,0824.7,4.99,0.00,23.9,23.1,00.0,32.8,25.8,12.0,0000.0,0002.14,0001.17,0000.82
2022-03-24 15:09:00,,0824.7,5.00,0.00,23.9,23.1,00.0,32.8,25.8,12.3,0000.0,0002.13,0001.17,0000.81
2022-03-24 15:10:00,,0824.6,5.02,0.00,24.0,23.2,00.0,32.8,25.9,12.1,0000.0,0002.13,0001.17,0000.81
2022-03-24 15:11:00,,0824.6,5.00,0.00,24.0,23.2,00.0,32.8,25.9,12.4,0000.0,0002.22,0001.20,0000.81
2022-03-24 15:12:00,,0824.6,5.01,0.00,24.0,23.2,00.0,32.8,25.9,12.6,0000.0,0002.29,0001.23,0000.81
2022-03-24 15:13:00,,0824.6,4.99,0.00,24.0,23.2,00.0,32.9,25.9,12.3,0000.0,0002.25,0001.21,0000.80
2022-03-24 15:14:00,,0824.6,5.01,0.00,24.0,23.2,00.0,32.9,25.9,11.8,0000.0,0002.51,0001.24,0000.81
2022-03-24 15:15:00,,0824.6,4.99,0.00,24.0,23.2,00.0,32.9,25.9,11.9,0000.0,0002.43,0001.24,0000.81
2022-03-24 15:16:00,,0824.7,5.02,0.00,24.0,23.2,00.0,32.9,25.9,12.2,0000.0,0002.29,0001.25,0000.80
2022-03-24 15:17:00,,,,,,,,,,,,0002.36,0001.25,0000.81
2022-03-24 15:17:35,,0824.8,5.02,0.00,24.1,23.3,00.0,32.9,25.9,12.0,0000.0,0002.36,0001.25,0000.81
2022-03-24 15:18:00,,0824.6,4.99,0.00,24.1,23.3,00.0,32.9,25.9,11.8,0000.0,0002.37,0001.24,0000.81
2022-03-24 15:19:00,,0824.7,4.99,0.00,24.1,23.3,00.0,32.9,26.0,12.0,0000.0,0002.30,0001.22,0000.80
2022-03-24 15:20:00,,0824.6,5.00,0.00,24.1,23.3,00.0,33.0,26.0,11.8,0000.0,0002.31,0001.23,0000.81
2022-03-24 15:21:00,,0824.6,5.00,0.00,24.1,23.3,00.0,33.0,26.0,12.1,0000.0,0002.36,0001.25,0000.82
2022-03-24 15:22:00,,0824.6,4.99,0.00,24.1,23.4,00.0,33.0,26.0,12.1,0000.0,0002.43,0001.28,0000.82
2022-03-24 15:23:00,,0824.6,5.00,0.00,24.1,23.4,00.0,33.0,26.0,11.7,0000.0,0002.48,0001.30,0000.83
2022-03-24 15:24:00,,0824.6,5.02,0.00,24.1,23.4,00.0,33.0,26.1,11.9,0000.0,0002.45,0001.29,0000.83
2022-03-24 15:25:00,,0824.7,4.98,0.00,24.2,23.4,00.0,33.0,26.1,12.1,0000.0,0002.32,0001.31,0000.84
2022-03-24 15:26:00,,0824.6,5.00,0.00,24.2,23.4,00.0,33.0,26.1,12.3,0000.0,0002.34,0001.35,0000.85
2022-03-24 15:27:00,,0824.7,5.00,0.00,24.2,23.4,00.0,33.0,26.1,12.0,0000.0,0002.27,0001.31,0000.85
2022-03-24 15:28:00,,0824.8,5.01,0.00,24.2,23.4,00.0,33.1,26.1,11.7,0000.0,0002.30,0001.32,0000.85
2022-03-24 15:29:00,,0824.8,4.99,0.00,24.2,23.4,00.0,33.1,26.0,11.8,0000.0,0002.23,0001.33,0000.86
2022-03-24 15:30:00,,0824.7,4.99,0.00,24.2,23.3,00.0,33.1,26.0,12.0,0000.0,0002.35,0001.36,0000.87
2022-03-24 15:31:00,,0824.8,4.99,0.00,24.2,23.3,00.0,33.1,26.0,12.3,0000.0,0002.35,0001.37,0000.87
2022-03-24 15:32:00,,0824.8,5.00,0.00,24.2,23.4,00.0,33.1,26.1,11.9,0000.0,0002.31,0001.36,0000.87
2022-03-24 15:33:00,,0824.9,5.00,0.00,24.2,23.4,00.0,33.1,26.1,12.6,0000.0,0002.33,0001.37,0000.88
2022-03-24 15:34:00,,0824.8,5.01,0.00,24.2,23.4,00.0,33.1,26.1,13.1,0000.0,0002.42,0001.39,0000.89
2022-03-24 15:35:00,,0824.9,4.99,0.00,24.2,23.4,00.0,33.1,26.1,12.5,0000.0,0002.58,0001.45,0000.90
2022-03-24 15:36:00,,0824.9,5.00,0.00,24.3,23.4,00.0,33.1,26.1,12.1,0000.0,0002.65,0001.45,0000.89
2022-03-24 15:37:00,,0824.9,5.02,0.00,24.3,23.4,00.0,33.1,26.2,12.2,0000.0,0002.63,0001.43,0000.89
2022-03-24 15:38:00,,0824.9,4.98,0.00,24.3,23.5,00.0,33.2,26.2,12.1,0000.0,0002.66,0001.44,0000.90
2022-03-24 15:39:00,,0824.8,5.00,0.00,24.3,23.5,00.0,33.2,26.2,12.0,0000.0,0002.59,0001.42,0000.89
2022-03-24 15:40:00,,0824.9,4.99,0.00,24.3,23.5,00.0,33.2,26.2,12.1,0000.0,0002.65,0001.42,0000.90
2022-03-24 15:41:00,,0824.9,5.01,0.00,24.3,23.5,00.0,33.2,26.3,12.1,0000.0,0002.80,0001.44,0000.90
2022-03-24 15:42:00,,0824.9,5.02,0.00,24.3,23.5,00.0,33.2,26.3,11.9,0000.0,0002.86,0001.45,0000.91
2022-03-24 15:43:00,,0824.8,5.00,0.00,24.4,23.5,00.0,33.2,26.3,11.9,0000.0,0002.85,0001.44,0000.91
2022-03-24 15:44:00,,0824.9,5.02,0.00,24.4,23.5,00.0,33.2,26.3,11.7,0000.0,0002.82,0001.44,0000.91
2022-03-24 15:45:00,,0824.9,4.99,0.00,24.4,23.5,00.0,33.2,26.3,11.9,0000.0,0002.85,0001.39,0000.89
2022-03-24 15:46:00,,0824.9,5.02,0.00,24.4,23.6,00.0,33.3,26.3,11.8,0000.0,0003.54,0001.34,0000.88
2022-03-24 15:47:00,,0824.9,5.00,0.00,24.4,23.6,00.0,33.3,26.3,11.8,0000.0,0003.43,0001.31,0000.87
2022-03-24 15:48:00,,0824.9,5.01,0.00,24.4,23.6,00.0,33.3,26.3,11.9,0000.0,0003.46,0001.28,0000.86
2022-03-24 15:49:00,,0825.0,4.98,0.00,24.4,23.6,00.0,33.3,26.3,11.8,0000.0,0003.54,0001.27,0000.86
2022-03-24 15:50:00,,0824.9,5.02,0.00,24.4,23.5,00.0,33.3,26.3,11.8,0000.0,0003.54,0001.25,0000.86
2022-03-24 15:51:00,,0824.9,5.03,0.00,24.4,23.5,00.0,33.3,26.3,11.7,0000.0,0003.50,0001.24,0000.86
2022-03-24 15:52:00,,0825.0,4.99,0.00,24.4,23.5,00.0,33.3,26.3,11.7,0000.0,0003.29,0001.22,0000.86
2022-03-24 15:53:00,,0825.0,5.01,0.00,24.4,23.6,00.0,33.3,26.3,12.8,0000.0,0003.17,0001.19,0000.86
2022-03-24 15:54:00,,0825.0,5.00,0.00,24.4,23.6,00.0,33.3,26.3,13.1,0000.0,0003.21,0001.21,0000.86
2022-03-24 15:55:00,,0825.0,5.01,0.00,24.4,23.6,00.0,33.3,26.3,12.5,0000.0,0003.29,0001.20,0000.87
2022-03-24 15:56:00,,0825.0,5.00,0.00,24.5,23.6,00.0,33.3,26.3,12.3,0000.0,0003.21,0001.21,0000.87
2022-03-24 15:57:00,,0825.0,4.98,0.00,24.5,23.6,00.0,33.3,26.3,12.6,0000.0,0002.31,0001.22,0000.88
2022-03-24 15:58:00,,0824.9,4.99,0.00,24.5,23.6,00.0,33.3,26.4,12.2,0000.0,0002.50,0001.26,0000.89
2022-03-24 15:59:00,,0825.0,5.01,0.00,24.5,23.7,00.0,33.3,26.3,12.1,0000.0,0002.95,0001.28,0000.89
